Weather History for KLKU - January, 2013

Change the Weather History Date:

Tuesday, January 8, 2013

  Actual Average (KCHO) Record (KCHO)
Temperature  
Mean Temperature 38 °F 35 °F  
Max Temperature 51 °F 44 °F 73 °F (1937)
Min Temperature 24 °F 26 °F 2 °F (1970)
Degree Days  
Heating Degree Days 28 30  
Month to date heating degree days 240  
Since 1 July heating degree days 1976  
Cooling Degree Days 0 0  
Month to date cooling degree days 0  
Year to date cooling degree days 0  
Moisture  
Dew Point 29 °F    
Average Humidity 76    
Maximum Humidity 93    
Minimum Humidity 50    
Precipitation  
Precipitation 0.00 in 0.09 in 0.19 in (2007)
Month to date precipitation 0.74  
Year to date precipitation 0.74  
Sea Level Pressure  
Sea Level Pressure 30.38 in    
Wind  
Wind Speed 2 mph (South)    
Max Wind Speed 8 mph    
Max Gust Speed -    
Visibility 10 miles    
Events      
T = Trace of Precipitation, MM = Missing Value Source: NWS Daily Summary

Daily Weather History Graph

Daily Weather History Graph

Search for Another Location

Airport or City:

Trip Planner

Search our weather history database for the weather conditions in past years. The results will help you decide how hot, cold, wet, or windy it might be!

Date:

Astronomy

Jan. 08, 2013 Rise Set
Actual Time 7:28 AM EST 5:09 PM EST
Civil Twilight 6:59 AM EST 5:38 PM EST
Nautical Twilight 6:26 AM EST 6:11 PM EST
Astronomical Twilight 5:54 AM EST 6:43 PM EST
Moon 3:59 AM EST (1/8) 2:09 PM EST (1/8)
Length of Visible Light 10h 39m
Length of Day
9h 41m
Waning Crescent, 14% of the Moon is Illuminated
Jan 8
Waning Crescent
Jan 11
New
Jan 18
First Quarter
Jan 26
Full
Feb 3
Last Quarter

Hourly Weather History & Observations

Time (EST) Temp. Windchill Dew Point Humidity Pressure Visibility Wind Dir Wind Speed Gust Speed Precip Events Conditions
12:15 AM 28.4 °F - 24.8 °F 86% 30.38 in 10.0 mi Calm Calm - N/A   Clear
12:35 AM 26.6 °F - 23.0 °F 86% 30.38 in 10.0 mi Calm Calm - N/A   Clear
12:55 AM 24.8 °F - 21.2 °F 86% 30.38 in 10.0 mi Calm Calm - N/A   Clear
1:15 AM 24.8 °F - 23.0 °F 93% 30.38 in 10.0 mi Calm Calm - N/A   Clear
1:35 AM 24.8 °F - 21.2 °F 86% 30.39 in 10.0 mi Calm Calm - N/A   Clear
1:55 AM 24.8 °F 20.5 °F 21.2 °F 86% 30.39 in 10.0 mi South 3.5 mph - N/A   Clear
2:15 AM 26.6 °F - 23.0 °F 86% 30.39 in 10.0 mi Calm Calm - N/A   Clear
2:35 AM 28.4 °F 23.3 °F 24.8 °F 86% 30.39 in 10.0 mi South 4.6 mph - N/A   Clear
2:55 AM 30.2 °F 26.7 °F 24.8 °F 80% 30.39 in 10.0 mi South 3.5 mph - N/A   Clear
3:15 AM 30.2 °F 26.7 °F 24.8 °F 80% 30.39 in 10.0 mi South 3.5 mph - N/A   Clear
3:35 AM 30.2 °F - 26.6 °F 86% 30.38 in 10.0 mi Calm Calm - N/A   Clear
3:55 AM 30.2 °F 26.7 °F 26.6 °F 86% 30.38 in 10.0 mi South 3.5 mph - N/A   Clear
4:15 AM 32.0 °F - 26.6 °F 80% 30.37 in 10.0 mi Calm Calm - N/A   Clear
4:35 AM 30.2 °F - 26.6 °F 86% 30.38 in 10.0 mi Calm Calm - N/A   Clear
4:55 AM 30.2 °F - 26.6 °F 86% 30.38 in 10.0 mi Calm Calm - N/A   Clear
5:15 AM 30.2 °F 26.7 °F 26.6 °F 86% 30.39 in 10.0 mi South 3.5 mph - N/A   Clear
5:35 AM 32.0 °F 27.5 °F 26.6 °F 80% 30.39 in 10.0 mi SSW 4.6 mph - N/A   Clear
5:55 AM 32.0 °F 28.7 °F 26.6 °F 80% 30.38 in 10.0 mi South 3.5 mph - N/A   Clear
6:15 AM 32.0 °F 27.5 °F 26.6 °F 80% 30.38 in 10.0 mi South 4.6 mph - N/A   Clear
6:35 AM 30.2 °F 26.7 °F 26.6 °F 86% 30.37 in 10.0 mi SSE 3.5 mph - N/A   Clear
6:55 AM 30.2 °F 25.4 °F 26.6 °F 86% 30.38 in 10.0 mi SSE 4.6 mph - N/A   Clear
7:15 AM 28.4 °F - 26.6 °F 93% 30.39 in 10.0 mi Calm Calm - N/A   Clear
7:35 AM 30.2 °F - 26.6 °F 86% 30.40 in 10.0 mi Calm Calm - N/A   Clear
7:55 AM 30.2 °F 26.7 °F 26.6 °F 86% 30.41 in 10.0 mi South 3.5 mph - N/A   Clear
8:35 AM 33.8 °F 29.6 °F 28.4 °F 81% 30.41 in 10.0 mi South 4.6 mph - N/A   Clear
8:55 AM 35.6 °F 29.9 °F 28.4 °F 75% 30.41 in 10.0 mi South 6.9 mph - N/A   Clear
9:15 AM 35.6 °F 30.7 °F 30.2 °F 81% 30.41 in 10.0 mi South 5.8 mph - N/A   Clear
9:35 AM 37.4 °F 32.1 °F 30.2 °F 75% 30.41 in 10.0 mi SSW 6.9 mph - N/A   Clear
9:55 AM 39.2 °F 34.2 °F 30.2 °F 70% 30.42 in 10.0 mi South 6.9 mph - N/A   Clear
10:15 AM 42.8 °F 39.3 °F 32.0 °F 66% 30.42 in 10.0 mi SSW 5.8 mph - N/A   Clear
10:35 AM 44.6 °F 40.2 °F 32.0 °F 61% 30.42 in 10.0 mi SSW 8.1 mph - N/A   Clear
10:55 AM 44.6 °F 40.7 °F 32.0 °F 61% 30.41 in 10.0 mi SW 6.9 mph - N/A   Clear
11:15 AM 46.4 °F 44.3 °F 33.8 °F 62% 30.40 in 10.0 mi SW 4.6 mph - N/A   Scattered Clouds
11:35 AM 48.2 °F - 32.0 °F 54% 30.39 in 10.0 mi WSW 5.8 mph - N/A   Scattered Clouds
11:55 AM 51.8 °F - 33.8 °F 50% 30.38 in 10.0 mi South 4.6 mph - N/A   Scattered Clouds
12:15 PM 50.0 °F - 33.8 °F 54% 30.37 in 10.0 mi SSW 6.9 mph - N/A   Mostly Cloudy
12:35 PM 50.0 °F - 33.8 °F 54% 30.37 in 10.0 mi South 4.6 mph - N/A   Overcast
12:55 PM 48.2 °F - 33.8 °F 58% 30.36 in 10.0 mi SSW 6.9 mph - N/A   Overcast
1:15 PM 48.2 °F - 33.8 °F 58% 30.36 in 10.0 mi South 5.8 mph - N/A   Overcast
1:35 PM 48.2 °F - 33.8 °F 58% 30.36 in 10.0 mi South 6.9 mph - N/A   Overcast
1:55 PM 48.2 °F - 32.0 °F 54% 30.36 in 10.0 mi South 6.9 mph - N/A   Overcast
2:15 PM 48.2 °F - 33.8 °F 58% 30.36 in 10.0 mi South 3.5 mph - N/A   Overcast
2:55 PM 48.2 °F - 32.0 °F 54% 30.35 in 10.0 mi South 5.8 mph - N/A   Overcast
3:15 PM 48.2 °F - 32.0 °F 54% 30.35 in 10.0 mi SSW 5.8 mph - N/A   Overcast
3:35 PM 50.0 °F - 32.0 °F 50% 30.35 in 10.0 mi SSW 4.6 mph - N/A   Mostly Cloudy
3:55 PM 50.0 °F - 32.0 °F 50% 30.36 in 10.0 mi South 6.9 mph - N/A   Scattered Clouds
4:15 PM 50.0 °F - 33.8 °F 54% 30.35 in 10.0 mi South 3.5 mph - N/A   Scattered Clouds
4:35 PM 48.2 °F - 33.8 °F 58% 30.35 in 10.0 mi SSE 4.6 mph - N/A   Clear
4:55 PM 48.2 °F - 33.8 °F 58% 30.35 in 10.0 mi South 3.5 mph - N/A   Clear
5:15 PM 46.4 °F - 33.8 °F 62% 30.36 in 10.0 mi Calm Calm - N/A   Clear
5:35 PM 39.2 °F - 33.8 °F 81% 30.36 in 10.0 mi Calm Calm - N/A   Clear
5:55 PM 42.8 °F - 33.8 °F 70% 30.36 in 10.0 mi Calm Calm - N/A   Clear
6:15 PM 37.4 °F - 32.0 °F 81% 30.38 in 10.0 mi Calm Calm - N/A   Clear
6:35 PM 35.6 °F - 32.0 °F 87% 30.38 in 10.0 mi Calm Calm - N/A   Clear
6:55 PM 35.6 °F - 32.0 °F 87% 30.38 in 10.0 mi Calm Calm - N/A   Clear
7:15 PM 35.6 °F 32.8 °F 30.2 °F 81% 30.37 in 10.0 mi South 3.5 mph - N/A   Clear
7:35 PM 35.6 °F - 30.2 °F 81% 30.37 in 10.0 mi Calm Calm - N/A   Clear
7:55 PM 33.8 °F - 30.2 °F 87% 30.37 in 10.0 mi Calm Calm - N/A   Clear
8:15 PM 33.8 °F 30.8 °F 30.2 °F 87% 30.37 in 10.0 mi South 3.5 mph - N/A   Clear
8:35 PM 33.8 °F - 30.2 °F 87% 30.37 in 10.0 mi Calm Calm - N/A   Clear
8:55 PM 35.6 °F - 30.2 °F 81% 30.38 in 10.0 mi Calm Calm - N/A   Clear
9:15 PM 33.8 °F - 30.2 °F 87% 30.38 in 10.0 mi Calm Calm - N/A   Clear
9:35 PM 32.0 °F - 30.2 °F 93% 30.38 in 7.0 mi Calm Calm - N/A   Clear
9:55 PM 30.2 °F - 28.4 °F 93% 30.38 in 7.0 mi Calm Calm - N/A   Clear
10:15 PM 32.0 °F - 30.2 °F 93% 30.38 in 10.0 mi Calm Calm - N/A   Clear
10:35 PM 30.2 °F - 28.4 °F 93% 30.38 in 7.0 mi Calm Calm - N/A   Clear
10:55 PM 30.2 °F - 28.4 °F 93% 30.38 in 5.0 mi Calm Calm - N/A   Clear
11:15 PM 30.2 °F - 28.4 °F 93% 30.38 in 5.0 mi Calm Calm - N/A   Clear
11:35 PM 28.4 °F - 26.6 °F 93% 30.37 in 7.0 mi Calm Calm - N/A   Clear